Tracking 19638 objects as of 20-Apr-2019
HD Live streaming from Space Station
objects crossing your sky now

METEOR 2-17 DEB

Track METEOR 2-17 DEB now!
10-day predictions


NORAD ID: 38283
Int'l Code: 1988-005AL
Perigee: 909.7 km
Apogee: 941.9 km
Inclination: 82.6 °
Period: 103.4 minutes
Semi major axis: 7296 km
RCS: 0.005 m2 (small)
Launch date: January 30, 1988
Source: Commonwealth of Independent States (former USSR) (CIS)
Launch site: PLESETSK MISSILE AND SPACE COMPLEX (PKMTR)

Note: This is SATELLITE DEBRIS
aabbcc
Your satellite tracking list
Your tracking list is empty




NASA's NSSDC Master Catalog

Two Line Element Set (TLE):
1 38283U 88005AL  19099.10451457  .00000114  00000-0  76245-4 0  9994
2 38283  82.5538 236.3910 0022088 192.8024 167.2584 13.92853514575536
Source of the keplerian elements: AFSPC